• In Netherlands
  • List of Countries
  • For 7 days
  • Water Temperature
  • Satellite Maps
  • Weather Map
  • Weather Widgets
  • user-avatar
    Login

    Hourly Weather Punta Gorda

    Today, 24 July, Monday

    Time Temperature Precipitation Wind Pressure Humidity
    00:00 +27°C° 0.6 mm 2 mps 760 mmHg 95%
    01:00 +27°C° 0.4 mm 1 mps 759 mmHg 96%
    02:00 +27°C° 0.4 mm 1 mps 759 mmHg 96%
    03:00 +27°C° 0.4 mm 1 mps 759 mmHg 96%
    04:00 +27°C° 0.1 mm 1 mps 759 mmHg 96%
    05:00 +27°C° 0.1 mm 1 mps 759 mmHg 96%
    06:00 +27°C° 0.1 mm 1 mps 759 mmHg 96%
    07:00 +28°C° 0 mm 1 mps 759 mmHg 88%
    08:00 +30°C° 0 mm 1 mps 760 mmHg 80%
    09:00 +32°C° 0 mm 1 mps 760 mmHg 72%
    10:00 +33°C° 0 mm 1 mps 759 mmHg 65%
    11:00 +36°C° 0 mm 2 mps 759 mmHg 58%
    12:00 +37°C° 0 mm 3 mps 759 mmHg 51%
    13:00 +37°C° 0 mm 3 mps 758 mmHg 51%
    14:00 +37°C° 0 mm 4 mps 758 mmHg 50%
    15:00 +37°C° 0 mm 4 mps 757 mmHg 50%
    16:00 +35°C° 0.1 mm 4 mps 758 mmHg 57%
    17:00 +34°C° 0.1 mm 4 mps 758 mmHg 64%
    18:00 +32°C° 0.1 mm 4 mps 758 mmHg 72%
    19:00 +30°C° 0.2 mm 4 mps 759 mmHg 77%
    20:00 +29°C° 0.2 mm 4 mps 759 mmHg 83%
    21:00 +28°C° 0.2 mm 3 mps 760 mmHg 89%
    22:00 +28°C° 0.4 mm 3 mps 760 mmHg 90%
    23:00 +28°C° 0.4 mm 3 mps 760 mmHg 92%

    Tomorrow, 25 July, Tuesday

    Time Temperature Precipitation Wind Pressure Humidity
    00:00 +28°C° 0.4 mm 3 mps 760 mmHg 94%
    01:00 +28°C° 0.2 mm 3 mps 760 mmHg 95%
    02:00 +28°C° 0.2 mm 2 mps 760 mmHg 96%
    03:00 +27°C° 0.2 mm 2 mps 759 mmHg 97%
    04:00 +27°C° 0.1 mm 2 mps 760 mmHg 97%
    05:00 +27°C° 0.1 mm 1 mps 760 mmHg 97%
    06:00 +27°C° 0.1 mm 1 mps 760 mmHg 98%
    07:00 +29°C° 0.1 mm 1 mps 760 mmHg 90%
    08:00 +30°C° 0.1 mm 2 mps 761 mmHg 83%
    09:00 +32°C° 0.1 mm 2 mps 761 mmHg 76%
    10:00 +34°C° 0 mm 3 mps 761 mmHg 68%
    11:00 +35°C° 0 mm 3 mps 761 mmHg 60%
    12:00 +36°C° 0 mm 4 mps 760 mmHg 53%
    13:00 +36°C° 0 mm 4 mps 760 mmHg 53%
    14:00 +36°C° 0 mm 4 mps 759 mmHg 53%
    15:00 +36°C° 0 mm 5 mps 759 mmHg 53%
    16:00 +35°C° 0.4 mm 4 mps 759 mmHg 59%
    17:00 +33°C° 0.4 mm 4 mps 759 mmHg 65%
    18:00 +32°C° 0.4 mm 4 mps 760 mmHg 72%
    19:00 +30°C° 0.7 mm 4 mps 760 mmHg 78%
    20:00 +29°C° 0.7 mm 3 mps 761 mmHg 85%
    21:00 +27°C° 0.7 mm 3 mps 761 mmHg 92%
    22:00 +27°C° 0.7 mm 3 mps 761 mmHg 93%
    23:00 +27°C° 0.7 mm 3 mps 761 mmHg 94%

    Day after tomorrow, 26 July, Wednesday

    Time Temperature Precipitation Wind Pressure Humidity
    00:00 +27°C° 0.7 mm 2 mps 761 mmHg 94%
    01:00 +27°C° 0.6 mm 2 mps 761 mmHg 95%
    02:00 +27°C° 0.6 mm 2 mps 760 mmHg 96%
    03:00 +26°C° 0.6 mm 2 mps 760 mmHg 97%
    04:00 +26°C° 0.5 mm 2 mps 760 mmHg 97%
    05:00 +26°C° 0.5 mm 2 mps 760 mmHg 97%
    06:00 +26°C° 0.5 mm 2 mps 760 mmHg 98%
    07:00 +28°C° 0.3 mm 2 mps 761 mmHg 91%
    08:00 +29°C° 0.3 mm 2 mps 761 mmHg 85%
    09:00 +30°C° 0.3 mm 2 mps 761 mmHg 78%
    10:00 +33°C° 0.1 mm 3 mps 761 mmHg 70%
    11:00 +34°C° 0.1 mm 3 mps 761 mmHg 62%
    12:00 +36°C° 0.1 mm 4 mps 761 mmHg 54%
    13:00 +36°C° 0 mm 4 mps 760 mmHg 52%
    14:00 +36°C° 0 mm 4 mps 759 mmHg 51%
    15:00 +36°C° 0 mm 4 mps 759 mmHg 49%
    16:00 +35°C° 0.3 mm 4 mps 759 mmHg 55%
    17:00 +34°C° 0.3 mm 4 mps 759 mmHg 60%
    18:00 +31°C° 0.3 mm 3 mps 759 mmHg 66%
    19:00 +30°C° 0.3 mm 3 mps 760 mmHg 74%
    20:00 +28°C° 0.3 mm 2 mps 760 mmHg 82%
    21:00 +27°C° 0.3 mm 2 mps 761 mmHg 90%
    22:00 +27°C° 0.5 mm 2 mps 761 mmHg 91%
    23:00 +27°C° 0.5 mm 1 mps 761 mmHg 93%

    27 July, Thursday

    Time Temperature Precipitation Wind Pressure Humidity
    00:00 +26°C° 0.5 mm 1 mps 761 mmHg 95%
    01:00 +26°C° 0.5 mm 1 mps 760 mmHg 95%
    02:00 +26°C° 0.5 mm 1 mps 760 mmHg 96%
    03:00 +26°C° 0.5 mm 1 mps 759 mmHg 97%
    04:00 +26°C° 0.8 mm 1 mps 759 mmHg 96%
    05:00 +26°C° 0.8 mm 1 mps 760 mmHg 96%
    06:00 +26°C° 0.8 mm 1 mps 760 mmHg 96%
    07:00 +28°C° 0.2 mm 1 mps 760 mmHg 85%
    08:00 +30°C° 0.2 mm 1 mps 760 mmHg 73%
    09:00 +33°C° 0.2 mm 1 mps 761 mmHg 62%
    10:00 +34°C° 0 mm 1 mps 760 mmHg 57%
    11:00 +36°C° 0 mm 2 mps 759 mmHg 53%
    12:00 +37°C° 0 mm 2 mps 759 mmHg 48%
    13:00 +36°C° 0.2 mm 2 mps 758 mmHg 49%
    14:00 +36°C° 0.2 mm 3 mps 758 mmHg 51%
    15:00 +36°C° 0.2 mm 3 mps 757 mmHg 52%
    16:00 +35°C° 0.3 mm 3 mps 757 mmHg 58%
    17:00 +33°C° 0.3 mm 3 mps 758 mmHg 65%
    18:00 +31°C° 0.3 mm 3 mps 758 mmHg 71%
    19:00 +30°C° 0.2 mm 2 mps 759 mmHg 77%
    20:00 +28°C° 0.2 mm 2 mps 759 mmHg 84%
    21:00 +27°C° 0.2 mm 2 mps 760 mmHg 90%
    22:00 +27°C° 0.3 mm 1 mps 759 mmHg 92%
    23:00 +26°C° 0.3 mm 1 mps 759 mmHg 94%

    28 July, Friday

    Time Temperature Precipitation Wind Pressure Humidity
    00:00 +26°C° 0.3 mm 1 mps 759 mmHg 95%
    01:00 +26°C° 0.5 mm 1 mps 759 mmHg 96%
    02:00 +26°C° 0.5 mm 1 mps 758 mmHg 97%
    03:00 +25°C° 0.5 mm 1 mps 758 mmHg 97%
    04:00 +25°C° 0 mm 1 mps 758 mmHg 97%
    05:00 +25°C° 0 mm 1 mps 758 mmHg 96%
    06:00 +25°C° 0 mm 1 mps 759 mmHg 96%
    07:00 +27°C° 0 mm 1 mps 759 mmHg 85%
    08:00 +30°C° 0 mm 1 mps 759 mmHg 74%
    09:00 +32°C° 0 mm 1 mps 760 mmHg 63%
    10:00 +33°C° 0.1 mm 1 mps 759 mmHg 61%
    11:00 +33°C° 0.1 mm 1 mps 759 mmHg 58%
    12:00 +34°C° 0.1 mm 1 mps 758 mmHg 55%
    13:00 +35°C° 0.2 mm 2 mps 758 mmHg 54%
    14:00 +36°C° 0.2 mm 2 mps 757 mmHg 54%
    15:00 +36°C° 0.2 mm 3 mps 757 mmHg 53%
    16:00 +34°C° 0.1 mm 3 mps 757 mmHg 58%
    17:00 +33°C° 0.1 mm 3 mps 758 mmHg 63%
    18:00 +31°C° 0.1 mm 3 mps 758 mmHg 68%
    19:00 +30°C° 0.2 mm 3 mps 758 mmHg 73%
    20:00 +29°C° 0.2 mm 3 mps 759 mmHg 78%
    21:00 +28°C° 0.2 mm 2 mps 759 mmHg 84%
    22:00 +27°C° 0.7 mm 2 mps 759 mmHg 86%
    23:00 +27°C° 0.7 mm 2 mps 759 mmHg 89%

    29 July, Saturday

    Time Temperature Precipitation Wind Pressure Humidity
    00:00 +27°C° 0.7 mm 2 mps 759 mmHg 92%
    01:00 +27°C° 0.6 mm 1 mps 759 mmHg 93%
    02:00 +27°C° 0.6 mm 1 mps 758 mmHg 94%
    03:00 +26°C° 0.6 mm 1 mps 758 mmHg 96%
    04:00 +26°C° 0 mm 1 mps 758 mmHg 95%
    05:00 +26°C° 0 mm 1 mps 758 mmHg 95%
    06:00 +26°C° 0 mm 1 mps 759 mmHg 95%
    07:00 +28°C° 0.1 mm 1 mps 759 mmHg 86%
    08:00 +30°C° 0.1 mm 1 mps 759 mmHg 77%
    09:00 +32°C° 0.1 mm 1 mps 759 mmHg 68%
    10:00 +33°C° 0.8 mm 1 mps 759 mmHg 65%
    11:00 +34°C° 0.8 mm 1 mps 759 mmHg 61%
    12:00 +36°C° 0.8 mm 2 mps 758 mmHg 57%
    13:00 +36°C° 0.3 mm 2 mps 758 mmHg 57%
    14:00 +36°C° 0.3 mm 3 mps 757 mmHg 57%
    15:00 +36°C° 0.3 mm 4 mps 757 mmHg 57%
    16:00 +34°C° 0.2 mm 4 mps 757 mmHg 63%
    17:00 +33°C° 0.2 mm 4 mps 758 mmHg 69%
    18:00 +30°C° 0.2 mm 3 mps 758 mmHg 74%
    19:00 +29°C° 0.6 mm 3 mps 758 mmHg 80%
    20:00 +29°C° 0.6 mm 3 mps 759 mmHg 86%
    21:00 +28°C° 0.6 mm 2 mps 759 mmHg 92%
    22:00 +28°C° 1.9 mm 2 mps 759 mmHg 93%
    23:00 +27°C° 1.9 mm 2 mps 759 mmHg 94%
    Show more